www.pogodaiklimat.ru

Погода и климат >> Архив погоды >> Сенегал >> Tambacounda


ПОГОДА в Tambacounda

  • Прогноз погоды в Tambacounda
  • Монитор погоды в Tambacounda
  • Климат города

АРХИВ ПОГОДЫ в Tambacounda

Время (UTC), дата Ветер
(напр.,м/с)
 
Видим.   Явления Облачность Т
(С)
Тd
(С)
f
(%)
Тe
(С)
Тes
(С)
Комфортность P
(гПа)
Po
(гПа)
Тmin
(С)
Tmax
(С)
R
(мм)
R24
(мм)
S
(см)
06 13.07 ЮЗ 2 10 км ясно +26.9 +23.4 81 +36 +36 очень
душно
1012.6 1006.9 +27.5
09 13.07 ЮЗ 3 10 км 5/5 450 м
[Cu hum]
+28.2 +24.2 79 +39 +42 очень
душно
1013.5 1007.9
12 13.07 З 1 10 км 3/3 450 м
[Cu hum]
+31.0 +24.7 69 +44 +61 опасность
перегрева
1013.7 1008.0
15 13.07 Ю 6 10 км гроза, ливневой дождь 9/4 450 м
[Cb cap Ac As]
+26.5 +23.6 84 +36 +38 очень
душно
1012.4 1006.7
18 13.07 ЮВ 2 10 км {гроза, дождь} 9/4 600 м
[Cu med, cong Ac As]
+27.3 +22.5 75 +36 +36 очень
душно
1011.4 1005.7 +35.0 0.0
21 13.07 Ю 2 10 км 5/1 450 м
[Sc diur, vesp Ac As]
+27.3 +24.6 85 +39 +39 очень
душно
1012.2 1006.5
00 14.07 ЮЗ 1 10 км 3/0
[Ac As]
+27.2 +24.8 87 +39 +39 очень
душно
1014.1 1008.4
03 14.07 Ю 2 10 км 4/0
[Ac As]
+26.0 +23.6 87 +35 +35 очень
душно
1012.8 1007.1
06 14.07 Ю 1 10 км 4/0
[Ac As]
+24.3 +24.0 98 +33 +33 очень
душно
1013.6 1007.9 +24.0 0.0
09 14.07 ЮЗ 1 10 км 8/4 450 м
[Sc Ac As Ci sp]
+27.0 +24.1 84 +37 +41 очень
душно
1013.8 1008.1
12 14.07 ЮЗ 2 10 км 8/3 450 м
[Sc diur, vesp Ac trans Ci sp]
+31.4 +24.5 67 +44 +53 опасность
перегрева
1014.2 1008.5
15 14.07 ЮВ 1 10 км 8/4 450 м
[Sc diur, vesp Ac trans Ci sp]
+34.2 +26.1 63 +50 +58 опасность
перегрева
1012.4 1006.7
18 14.07 Ю 1 10 км 8/3 450 м
[Cu hum Ac trans Ci sp]
+34.8 +24.2 54 +47 +48 опасность
перегрева
1010.9 1005.3 +35.0
21 14.07 Ю 2 10 км зарница 3/3 900 м
[Cb calv]
+32.7 +24.7 63 +46 +46 опасность
перегрева
1012.6 1006.9
00 15.07 ЮЗ 2 10 км зарница 3/3 900 м
[Cb calv]
+31.0 +24.7 69 +44 +44 опасность
перегрева
1013.1 1007.5
03 15.07 ЮЗ 5 10 км ясно +29.4 +24.6 75 +42 +42 опасность
перегрева
1011.3 1005.7
06 15.07 ЮЗ 2 10 км 5/0
[Ac trans Ci sp]
+27.5 +24.7 85 +39 +39 очень
душно
1012.3 1006.7 +27.0
09 15.07 Ю 1 10 км 9/9 450 м
[Sc]
+28.5 +25.0 81 +41 +42 опасность
перегрева
1014.2 1008.6
12 15.07 ЮЗ 3 10 км 9/4 480 м
[Cu Sc]
+31.8 +24.8 67 +45 +52 опасность
перегрева
1012.3 1006.7
15 15.07 ЮЗ 3 10 км 8/8 450 м
[Cu med, cong]
+34.6 +26.1 61 +50 +53 опасность
перегрева
1009.8 1004.2
18 15.07 Ю 3 10 км 6/3 450 м
[Cu med, cong Ci sp]
+34.7 +25.3 58 +49 +50 опасность
перегрева
1009.1 1003.5 +35.6
21 15.07 Ю 3 10 км 4/1 450 м
[Sc Ci sp]
+32.5 +24.8 64 +46 +46 опасность
перегрева
1010.2 1004.5
00 16.07 ЮЗ 3 10 км 5/5 450 м
[Sc]
+31.0 +24.5 68 +43 +43 опасность
перегрева
1012.1 1006.4
03 16.07 ЮЗ 3 10 км 3/3 450 м
[Sc]
+28.8 +24.1 76 +40 +40 очень
душно
1011.1 1005.5
06 16.07 Ю 2 10 км 3/3 450 м
[Sc]
+27.4 +24.0 82 +38 +38 очень
душно
1011.2 1005.6 +27.0
09 16.07 ЮЗ 3 10 км 8/8 400 м
[Cu med, cong]
+28.6 +24.5 79 +41 +42 опасность
перегрева
1012.1 1006.4
12 16.07 Ю 3 10 км 8/8 400 м
[Cu med, cong]
+32.4 +24.5 63 +45 +49 опасность
перегрева
1011.9 1006.3
15 16.07 ЮЗ 3 10 км 6/6 400 м
[Cu med, cong]
+35.2 +23.9 52 +47 +53 опасность
перегрева
1009.4 1003.9
18 16.07 Ю 3 10 км 6/6 400 м
[Cu med, cong]
+34.8 +24.4 55 +47 +48 опасность
перегрева
1008.5 1002.9 +36.0
21 16.07 Ю 2 10 км зарница 4/1 800 м
[Cb calv Ci sp]
+32.9 +24.0 60 +45 +45 опасность
перегрева
1010.4 1004.7
00 17.07 Ю 4 10 км зарница 1/1 800 м
[Cb calv]
+31.0 +24.8 70 +44 +44 опасность
перегрева
1011.7 1006.1
03 17.07 ЮЗ 2 10 км 4/0
[Ci sp]
+29.5 +24.1 73 +41 +41 опасность
перегрева
1011.0 1006.1
06 17.07 Ю 2 10 км ясно +28.0 +23.7 77 +38 +38 очень
душно
1010.8 1005.2 +27.3
09 17.07 ЮЗ 1 10 км 9/8 400 м
[Sc Ac As]
+28.8 +23.8 74 +39 +40 очень
душно
1012.7 1007.1
12 17.07 ЮЗ 2 10 км 9/8 400 м
[Cu med, cong Ac As]
+30.2 +24.5 72 +43 +46 опасность
перегрева
1013.3 1007.7
15 17.07 Ю 3 10 км 8/8 400 м
[Cu med, cong]
+34.5 +23.9 54 +46 +49 опасность
перегрева
1010.7 1005.1
18 17.07 Ю 4 10 км 5/5 450 м
[Cu med, cong]
+34.4 +24.3 56 +47 +47 опасность
перегрева
1009.2 1003.6 +35.0
21 17.07 Ю 3 10 км зарница 3/1 600 м
[Cb calv Ci sp]
+30.2 +23.6 68 +41 +41 опасность
перегрева
1011.3 1005.6
00 18.07 Ю 2 10 км зарница 6/1 900 м
[Cb calv Ci sp]
+28.5 +23.5 74 +39 +39 очень
душно
1013.2 1007.5
03 18.07 Ю 2 10 км 4/0
[Ci sp]
+27.5 +24.1 82 +38 +38 очень
душно
1011.8 1006.1
06 18.07 Ю 2 10 км 6/3 400 м
[Sc Ci sp]
+26.6 +24.3 87 +37 +37 очень
душно
1012.6 1007.0 +25.9
09 18.07 Ю 2 10 км 8/8 400 м
[Sc]
+28.0 +24.0 79 +39 +40 очень
душно
1013.5 1007.8
12 18.07 ЮЗ 3 10 км 9/8 450 м
[Cu med, cong Ci sp]
+35.0 +23.6 52 +46 +49 опасность
перегрева
1013.3 1007.7
15 18.07 Ю 1 10 км 9/8 450 м
[Cu med, cong Ci sp]
+35.0 +23.7 52 +46 +50 опасность
перегрева
1011.0 1005.3
18 18.07 ЮЗ 1 10 км 8/6 450 м
[Cu med, cong Ci sp]
+35.7 +23.4 49 +46 +47 опасность
перегрева
1009.5 1003.9 +36.2
21 18.07 Ю 3 6000 м сильная гроза, ливневой дождь 9/3 450 м
[Cb cap Ac As]
+25.5 +24.8 96 +36 +36 очень
душно
1012.9 1007.2
00 19.07 ЮЗ 1 8000 м гроза, ливневой дождь 10/3 450 м
[Cb cap Ac As]
+26.4 +24.4 89 +37 +37 очень
душно
1013.3 1007.6 63
03 19.07 Ю 1 8000 м гроза, ливневой дождь 9/4 450 м
[Cb cap Ac As]
+25.6 +24.7 95 +36 +36 очень
душно
1012.7 1007.1
06 19.07 ЮВ 2 8000 м слабый ливневой дождь, в посл. час гроза 10/6 450 м
[Sc Ac As]
+23.6 +23.3 98 +32 +32 очень
душно
1012.6 1007.0 +21.5 102
09 19.07 Ю 1 8000 м слабый дождь 9/4 450 м
[Sc Ac As]
+23.5 +22.6 95 +31 +33 очень
душно
1013.2 1007.5
12 19.07 Ю 2 10 км {дождь} 9/4 450 м
[Cb calv Ac und]
+26.8 +24.1 85 +37 +43 очень
душно
1010.2 1008.2 48
15 19.07 СЗ 1 10 км 9/6 450 м
[Cu med, cong Ac As]
+28.7 +25.1 81 +42 +45 опасность
перегрева
1012.2 1006.5
18 19.07 СЗ 1 10 км 9/4 450 м
[Sc diur, vesp Ac cuf Ci fib]
+30.6 +24.3 69 +43 +44 опасность
перегрева
1011.2 1005.5 +31.0 5
21 19.07 ЮЗ 1 10 км зарница 9/3 450 м
[Cb calv Ac As Ci fib]
+29.3 +25.7 81 +43 +43 опасность
перегрева
1012.3 1006.6

 

Местоположение метеостанции Tambacounda (Сенегал): широта 13.77 долгота -13.68 высота над уровнем моря 50 м.

В архиве по умолчанию представлена погода в Tambacounda за последнюю неделю. Архивные данные за месяц целиком и за предыдущие месяцы, начиная с января 2011 года, Вы можете получить, выбрав интересующий диапазон дат из раскрывающегося списка и нажав кнопку "Ввод!".


*Определитесь, кто Вы:
робот инопланетянин человек

Внимание! Время в таблицах - всемирное. Для получения местного времени необходимо прибавить поправку, которая в Tambacounda равна 0 ч.

Смотрите также архив погоды в соседних городах и на ближайших метеорологических станциях:

Погода в Fatoto (Гамбия) (33 км)
Погода в Basse (Гамбия) (85 км)
Погода в Georgetown (Гамбия) (121 км)
Погода в Koundara (Гвинея) (135 км)
Погода в Kolda (Сенегал) (170 км)
Погода в Kauur (Гамбия) (177 км)
Погода в Jenoi (Гамбия) (207 км)
Погода в Kedougou (Сенегал) (208 км)
Погода в Bafata (Гвинея-Биссау) (208 км)
Погода в Matam (Сенегал) (214 км)

Пояснения к столбцам:

Ветер - указаны скорость ветра в м/с - средняя за 10 мин, порывы в срок и между сроками (в фигурных скобках) и направление, откуда дует ветер: С - северный, СВ - северо-восточный, В - восточный, ЮВ - юго-восточный, Ю - южный, ЮЗ - юго-западный, З - западный, СЗ - северо-западный.
Видимость - горизонтальная дальность видимости в метрах или километрах. При видимости от 1 до 10 км при отсутствии осадков обычно наблюдается дымка, при ухудшении видимости до 1 км и менее - туман. В сухую погоду видимость может ухудшаться дымом, пылью или мглою.
Явления - указаны атмосферные явления, наблюдавшиеся в срок или в последний час перед сроком; фигурными скобками обозначены явления, наблюдавшиеся между сроками (за 1-3 часа до срока); квадратными скобками обозначены град или гололедные отложения с указанием их диаметра в мм.
Облачность - указаны через наклонную черту общая и нижняя облачность в баллах и высота нижней границы облаков в метрах; квадратными скобками обозначены формы облаков: Ci - перистые, Cs - перисто-слоистые, Cc - перисто-кучевые, Ac - высококучевые, As - высокослоистые, Sc - слоисто-кучевые, Ns - слоисто-дождевые, Cu - кучевые, Cb - кучево-дождевые. Подробнее классификацию облаков см. в Атласе облаков (PDF).
T - Температура воздуха - температура, измеренная на высоте 2 м над землей.
Td - Температура точки росы - температура, при понижении до которой содержащийся в воздухе водяной пар достигнет насыщения.
f - Относительная влажность воздуха - влажноcть воздуха, измеренная на высоте 2 м над землей.
Te - Эффективная температура - температура, которую ощущает одетый по сезону человек в тени. Характеристика душности погоды. При расчете учитывается влияние влажности воздуха и скорости ветра на теплоощущения человека.
Tes - Эффективная температура на солнце - температура, которую ощущает человек, с поправкой на солнечный нагрев. Характеристика знойности погоды. Зависит от высоты солнца над горизонтом, облачности и скорости ветра. Ночью, в пасмурную погоду, а также при ветре 12 м/с и более поправка равна нулю.
P - Атмосферное давление - приведенное к уровню моря атмосферное давление.
Po - Атмосферное давление - измеренное на уровне метеостанции атмосферное давление.
Tmin - Минимальная температура - минимум температуры воздуха на высоте 2 м над землей.
Tmax - Максимальная температура - максимум температуры воздуха на высоте 2 м над землей.
R - Количество осадков - Количество выпавших осадков за период времени, мм. При наведении курсора мыши на число - период времени, за который выпало указанное количество осадков.
R24 - Количество осадков - Количество выпавших осадков за 24 часа, мм.
S - Снежный покров - Высота снежного покрова, см. При наведении курсора мыши на число - состояние снежного покрова и степень покрытия местности в баллах.